Previsão horária em Lisboa

Hoje, 24 Fevereiro, Quarta-feira

Tempo Temperatura Precipitação Vento Pressão Humidade
00:00 +10°C° 0 mm 4 m/s 767 mmHg 72%
01:00 +9°C° 0 mm 5 m/s 767 mmHg 75%
02:00 +9°C° 0 mm 5 m/s 767 mmHg 79%
03:00 +8°C° 0 mm 5 m/s 767 mmHg 79%
04:00 +8°C° 0 mm 5 m/s 767 mmHg 79%
05:00 +8°C° 0 mm 5 m/s 766 mmHg 81%
06:00 +9°C° 0 mm 6 m/s 766 mmHg 79%
07:00 +9°C° 0 mm 6 m/s 766 mmHg 77%
08:00 +10°C° 0 mm 7 m/s 766 mmHg 75%
09:00 +12°C° 0 mm 7 m/s 766 mmHg 73%
10:00 +14°C° 0 mm 6 m/s 766 mmHg 71%
11:00 +16°C° 0 mm 6 m/s 766 mmHg 68%
12:00 +17°C° 0 mm 6 m/s 765 mmHg 66%
13:00 +17°C° 0 mm 6 m/s 764 mmHg 64%
14:00 +19°C° 0 mm 6 m/s 764 mmHg 62%
15:00 +17°C° 0 mm 5 m/s 764 mmHg 67%
16:00 +16°C° 0 mm 5 m/s 764 mmHg 73%
17:00 +15°C° 0 mm 5 m/s 764 mmHg 78%
18:00 +15°C° 0.1 mm 5 m/s 764 mmHg 81%
19:00 +14°C° 0.1 mm 5 m/s 764 mmHg 84%
20:00 +13°C° 0.1 mm 4 m/s 764 mmHg 87%
21:00 +13°C° 0.1 mm 4 m/s 764 mmHg 89%
22:00 +12°C° 0.1 mm 3 m/s 764 mmHg 91%
23:00 +12°C° 0.1 mm 3 m/s 765 mmHg 93%

Amanhã, 25 Fevereiro, Quinta-feira

Tempo Temperatura Precipitação Vento Pressão Humidade
00:00 +12°C° 0.5 mm 3 m/s 764 mmHg 93%
01:00 +12°C° 0.5 mm 3 m/s 764 mmHg 93%
02:00 +12°C° 0.5 mm 3 m/s 764 mmHg 93%
03:00 +11°C° 0.6 mm 3 m/s 764 mmHg 92%
04:00 +11°C° 0.6 mm 4 m/s 764 mmHg 91%
05:00 +11°C° 0.6 mm 4 m/s 764 mmHg 90%
06:00 +11°C° 0.4 mm 4 m/s 764 mmHg 90%
07:00 +11°C° 0.4 mm 4 m/s 765 mmHg 89%
08:00 +10°C° 0.4 mm 5 m/s 765 mmHg 89%
09:00 +10°C° 0.5 mm 5 m/s 765 mmHg 87%
10:00 +12°C° 0.5 mm 5 m/s 765 mmHg 86%
11:00 +12°C° 0.5 mm 5 m/s 765 mmHg 85%
12:00 +12°C° 0.6 mm 5 m/s 765 mmHg 84%
13:00 +12°C° 0.6 mm 5 m/s 765 mmHg 84%
14:00 +12°C° 0.6 mm 5 m/s 764 mmHg 84%
15:00 +12°C° 0.3 mm 5 m/s 764 mmHg 85%
16:00 +10°C° 0.3 mm 5 m/s 764 mmHg 86%
17:00 +10°C° 0.3 mm 5 m/s 764 mmHg 87%
18:00 +10°C° 0.4 mm 5 m/s 764 mmHg 89%
19:00 +10°C° 0.4 mm 5 m/s 764 mmHg 90%
20:00 +10°C° 0.4 mm 5 m/s 764 mmHg 92%
21:00 +11°C° 0.2 mm 4 m/s 764 mmHg 91%
22:00 +11°C° 0.2 mm 4 m/s 764 mmHg 91%
23:00 +10°C° 0.2 mm 4 m/s 764 mmHg 91%

Depois de amanhã, 26 Fevereiro, Sexta-feira

Tempo Temperatura Precipitação Vento Pressão Humidade
00:00 +10°C° 0 mm 4 m/s 764 mmHg 91%
01:00 +10°C° 0 mm 3 m/s 764 mmHg 91%
02:00 +10°C° 0 mm 3 m/s 764 mmHg 90%
03:00 +10°C° 0 mm 3 m/s 764 mmHg 90%
04:00 +10°C° 0 mm 3 m/s 764 mmHg 90%
05:00 +10°C° 0 mm 3 m/s 764 mmHg 90%
06:00 +10°C° 0 mm 3 m/s 765 mmHg 88%
07:00 +11°C° 0 mm 3 m/s 765 mmHg 87%
08:00 +12°C° 0 mm 3 m/s 766 mmHg 85%
09:00 +13°C° 0 mm 3 m/s 766 mmHg 80%
10:00 +16°C° 0 mm 3 m/s 766 mmHg 75%
11:00 +17°C° 0 mm 3 m/s 766 mmHg 69%
12:00 +18°C° 0 mm 3 m/s 766 mmHg 67%
13:00 +18°C° 0 mm 3 m/s 765 mmHg 64%
14:00 +19°C° 0 mm 2 m/s 765 mmHg 61%
15:00 +18°C° 0 mm 2 m/s 765 mmHg 66%
16:00 +18°C° 0 mm 3 m/s 765 mmHg 70%
17:00 +17°C° 0 mm 3 m/s 765 mmHg 74%
18:00 +16°C° 0 mm 3 m/s 765 mmHg 77%
19:00 +14°C° 0 mm 3 m/s 765 mmHg 79%
20:00 +13°C° 0 mm 3 m/s 766 mmHg 81%
21:00 +13°C° 0 mm 3 m/s 766 mmHg 82%
22:00 +13°C° 0 mm 3 m/s 765 mmHg 82%
23:00 +12°C° 0 mm 3 m/s 765 mmHg 83%

27 Fevereiro, Sábado

Tempo Temperatura Precipitação Vento Pressão Humidade
00:00 +12°C° 0 mm 3 m/s 765 mmHg 83%
01:00 +12°C° 0 mm 3 m/s 765 mmHg 84%
02:00 +12°C° 0 mm 3 m/s 765 mmHg 85%
03:00 +11°C° 0 mm 3 m/s 764 mmHg 84%
04:00 +11°C° 0 mm 3 m/s 764 mmHg 83%
05:00 +11°C° 0 mm 3 m/s 764 mmHg 82%
06:00 +12°C° 0 mm 3 m/s 764 mmHg 79%
07:00 +12°C° 0 mm 3 m/s 764 mmHg 76%
08:00 +13°C° 0 mm 3 m/s 764 mmHg 73%
09:00 +14°C° 0 mm 3 m/s 764 mmHg 69%
10:00 +16°C° 0 mm 3 m/s 764 mmHg 66%
11:00 +17°C° 0 mm 3 m/s 764 mmHg 62%
12:00 +18°C° 0 mm 3 m/s 763 mmHg 60%
13:00 +19°C° 0 mm 3 m/s 763 mmHg 58%
14:00 +19°C° 0 mm 3 m/s 762 mmHg 55%
15:00 +19°C° 0 mm 3 m/s 762 mmHg 59%
16:00 +18°C° 0 mm 2 m/s 762 mmHg 62%
17:00 +17°C° 0 mm 2 m/s 762 mmHg 66%
18:00 +16°C° 0 mm 2 m/s 762 mmHg 69%
19:00 +15°C° 0 mm 2 m/s 762 mmHg 72%
20:00 +14°C° 0 mm 2 m/s 762 mmHg 75%
21:00 +14°C° 0 mm 2 m/s 762 mmHg 76%
22:00 +13°C° 0 mm 2 m/s 762 mmHg 77%
23:00 +13°C° 0 mm 2 m/s 761 mmHg 79%

28 Fevereiro, Domingo

Tempo Temperatura Precipitação Vento Pressão Humidade
00:00 +11°C° 0 mm 3 m/s 761 mmHg 80%
01:00 +11°C° 0 mm 3 m/s 761 mmHg 82%
02:00 +10°C° 0 mm 3 m/s 761 mmHg 83%
03:00 +10°C° 0 mm 3 m/s 760 mmHg 83%
04:00 +10°C° 0 mm 3 m/s 760 mmHg 83%
05:00 +9°C° 0 mm 3 m/s 760 mmHg 83%
06:00 +10°C° 0 mm 3 m/s 760 mmHg 81%
07:00 +11°C° 0 mm 3 m/s 760 mmHg 80%
08:00 +11°C° 0 mm 3 m/s 761 mmHg 78%
09:00 +13°C° 0 mm 3 m/s 760 mmHg 74%
10:00 +16°C° 0 mm 3 m/s 760 mmHg 70%
11:00 +17°C° 0 mm 3 m/s 760 mmHg 65%
12:00 +18°C° 0 mm 3 m/s 760 mmHg 61%
13:00 +19°C° 0 mm 2 m/s 759 mmHg 58%
14:00 +20°C° 0 mm 2 m/s 759 mmHg 54%
15:00 +19°C° 0 mm 2 m/s 759 mmHg 59%
16:00 +18°C° 0 mm 2 m/s 759 mmHg 64%
17:00 +17°C° 0 mm 2 m/s 759 mmHg 68%
18:00 +16°C° 0.2 mm 2 m/s 759 mmHg 71%
19:00 +15°C° 0.2 mm 2 m/s 759 mmHg 74%
20:00 +14°C° 0.2 mm 2 m/s 760 mmHg 77%
21:00 +13°C° 0.1 mm 2 m/s 760 mmHg 79%
22:00 +13°C° 0.1 mm 2 m/s 760 mmHg 80%
23:00 +12°C° 0.1 mm 2 m/s 760 mmHg 82%

1 Março, Segunda-feira

Tempo Temperatura Precipitação Vento Pressão Humidade
00:00 +11°C° 0 mm 3 m/s 759 mmHg 83%
01:00 +11°C° 0 mm 3 m/s 759 mmHg 85%
02:00 +10°C° 0 mm 3 m/s 759 mmHg 86%
03:00 +10°C° 0 mm 3 m/s 759 mmHg 86%
04:00 +10°C° 0 mm 3 m/s 759 mmHg 87%
05:00 +9°C° 0 mm 3 m/s 759 mmHg 87%
06:00 +10°C° 0 mm 3 m/s 759 mmHg 84%
07:00 +11°C° 0 mm 3 m/s 759 mmHg 81%
08:00 +12°C° 0 mm 3 m/s 759 mmHg 78%
09:00 +13°C° 0 mm 3 m/s 760 mmHg 73%
10:00 +16°C° 0 mm 2 m/s 760 mmHg 67%
11:00 +18°C° 0 mm 2 m/s 760 mmHg 62%
12:00 +18°C° 0.1 mm 2 m/s 760 mmHg 60%
13:00 +20°C° 0.1 mm 1 m/s 760 mmHg 58%
14:00 +21°C° 0.1 mm 1 m/s 760 mmHg 56%
15:00 +19°C° 0.2 mm 1 m/s 760 mmHg 62%
16:00 +18°C° 0.2 mm 1 m/s 760 mmHg 68%
17:00 +16°C° 0.2 mm 2 m/s 760 mmHg 73%
18:00 +15°C° 0.1 mm 2 m/s 761 mmHg 76%
19:00 +14°C° 0.1 mm 2 m/s 761 mmHg 79%
20:00 +13°C° 0.1 mm 2 m/s 762 mmHg 81%
21:00 +13°C° 0 mm 2 m/s 762 mmHg 82%
22:00 +13°C° 0 mm 2 m/s 762 mmHg 83%
23:00 +12°C° 0 mm 1 m/s 762 mmHg 84%
Mostrar mais

Necessitamos do seu Consentimento

A Meteoprog e os seus Fornecedores de Serviços podem armazenar e aceder a dados pessoais como cookies, identificadores do dispositivo ou outras tecnologias semelhantes existentes no seu dispositivo e processar estes dados para personalizar conteúdos e anúncios, assim como funcionalidades nas redes sociais e análise de tráfego.

  • Armazenar e/ou aceder a informações no seu dispositivo

    Os cookies, identificadores do dispositivo ou outras informações podem ser armazenados ou acedidos no seu dispositivo, para os fins acima indicados.

  • Anúncios e conteúdos personalizados, medição de anúncios e conteúdos, dados sobre o público-alvo e desenvolvimento de produtos

    Os anúncios e os conteúdos podem ser personalizados com base num perfil. Podem ser adicionados dados adicionais para uma maior personalização dos anúncios e dos conteúdos. A eficácia dos anúncios e dos conteúdos pode ser medida. Podem ser obtidas informações sobre o público que visualizou os anúncios e os conteúdos. Estes dados podem ser usados para desenvolver ou melhorar sistemas, softwares ou a experiência do utilizador.

Ao clicar em "Eu concordo”, permitirá o uso de cookies, identificadores do dispositivo e web beacons mencionados ou outras tecnologias semelhantes. As configurações do navegador do seu dispositivo podem ser alteradas.

Para certos fins, podem ser invocados interesses legítimos ao invés de consentimento. Pode ler mais informação sobre este assunto na nossa Política de Privacidade e Cookies.